Paynesville, MN

12:12 PM CDT on August 24, 2016 (GMT -0500)
Paynesville

Weather History for KPEX - April, 2013

Change the Weather History Date:

Monday, April 22, 2013

  Actual Average (KLJF) Record (KLJF)
Temperature  
Mean Temperature 32 °F -  
Max Temperature 35 °F 60 °F 91 °F (1980)
Min Temperature 29 °F 38 °F 22 °F (1967)
Degree Days  
Heating Degree Days 33    
Moisture  
Dew Point 28 °F    
Average Humidity 85    
Maximum Humidity 96    
Minimum Humidity 63    
Precipitation  
Precipitation 0.01 in - - ()
Sea Level Pressure  
Sea Level Pressure 30.20 in    
Wind  
Wind Speed 7 mph (North)    
Max Wind Speed 15 mph    
Max Gust Speed 24 mph    
Visibility 7 miles    
Events Snow    
Averages and records for this station are not official NWS values.
T = Trace of Precipitation, MM = Missing Value Source: NWS Daily Summary

Daily Weather History Graph

Daily Weather History Graph

Search for Another Location

Airport or City:

Trip Planner

Search our weather history database for the weather conditions in past years. The results will help you decide how hot, cold, wet, or windy it might be!

Date:

Astronomy

Apr. 22, 2013 Rise Set
Actual Time 6:21 AM CDT 8:14 PM CDT
Civil Twilight 5:49 AM CDT 8:46 PM CDT
Nautical Twilight 5:10 AM CDT 9:24 PM CDT
Astronomical Twilight 4:28 AM CDT 10:07 PM CDT
Moon 4:56 PM CDT (4/22) 4:26 AM CDT (4/22)
Length of Visible Light 14h 56m
Length of Day
13h 53m
Waxing Gibbous, 88% of the Moon is Illuminated
Apr 22
Waxing Gibbous
Apr 25
Full
May 2
Last Quarter
May 9
New
May 17
First Quarter

Hourly Weather History & Observations

Time (CDT) Temp. Windchill Dew Point Humidity Pressure Visibility Wind Dir Wind Speed Gust Speed Precip Events Conditions
12:13 AM 35.1 °F 29.3 °F 31.5 °F 87% 30.15 in 10.0 mi NW 6.9 mph - N/A   Overcast
12:33 AM 34.9 °F 29.0 °F 30.7 °F 85% 30.15 in 10.0 mi NNW 6.9 mph - N/A   Overcast
12:52 AM 34.7 °F 28.1 °F 30.7 °F 85% 30.15 in 10.0 mi NNW 8.1 mph - N/A   Overcast
1:13 AM 34.7 °F 27.5 °F 29.8 °F 82% 30.16 in 10.0 mi North 9.2 mph - N/A   Overcast
1:33 AM 34.3 °F 28.4 °F 29.7 °F 83% 30.16 in 10.0 mi North 6.9 mph - N/A   Overcast
1:53 AM 34.5 °F 29.4 °F 28.6 °F 79% 30.17 in 10.0 mi NNW 5.8 mph - N/A   Overcast
2:13 AM 33.8 °F 29.6 °F 29.1 °F 83% 30.17 in 10.0 mi NNW 4.6 mph - N/A   Overcast
2:33 AM 33.8 °F 29.6 °F 28.9 °F 82% 30.17 in 10.0 mi NNW 4.6 mph - N/A   Overcast
2:53 AM 33.8 °F 29.6 °F 29.3 °F 84% 30.16 in 10.0 mi North 4.6 mph - N/A   Overcast
3:13 AM 33.3 °F 28.9 °F 28.9 °F 84% 30.18 in 10.0 mi NNW 4.6 mph - N/A   Overcast
3:33 AM 33.3 °F 30.2 °F 28.6 °F 83% 30.18 in 10.0 mi North 3.5 mph - N/A   Overcast
3:53 AM 33.1 °F 30.0 °F 28.4 °F 83% 30.19 in 10.0 mi North 3.5 mph - N/A   Overcast
4:13 AM 33.1 °F 30.0 °F 27.9 °F 81% 30.20 in 10.0 mi NW 3.5 mph - N/A   Overcast
4:33 AM 32.9 °F 27.5 °F 28.0 °F 82% 30.19 in 10.0 mi North 5.8 mph - N/A   Overcast
4:53 AM 32.0 °F 27.5 °F 27.5 °F 83% 30.18 in 10.0 mi North 4.6 mph - N/A   Scattered Clouds
5:13 AM 32.0 °F 28.7 °F 27.5 °F 83% 30.20 in 10.0 mi NW 3.5 mph - N/A   Scattered Clouds
5:33 AM 32.0 °F - 27.5 °F 83% 30.20 in 10.0 mi Calm Calm - N/A   Overcast
5:53 AM 32.0 °F - 27.9 °F 85% 30.21 in 10.0 mi Calm Calm - N/A   Overcast
6:13 AM 32.0 °F 27.5 °F 28.0 °F 85% 30.21 in 10.0 mi NNW 4.6 mph - N/A   Overcast
6:33 AM 32.0 °F 27.5 °F 27.3 °F 83% 30.22 in 10.0 mi NNW 4.6 mph - N/A   Scattered Clouds
6:53 AM 31.6 °F 27.0 °F 27.1 °F 83% 30.20 in 10.0 mi North 4.6 mph - N/A   Clear
7:13 AM 31.8 °F 26.2 °F 27.3 °F 83% 30.21 in 10.0 mi North 5.8 mph - N/A   Clear
7:33 AM 31.8 °F 25.4 °F 27.3 °F 83% 30.19 in 10.0 mi North 6.9 mph - N/A   Clear
7:53 AM 32.0 °F 25.6 °F 27.7 °F 84% 30.19 in 10.0 mi North 6.9 mph - N/A   Clear
8:13 AM 31.8 °F 24.6 °F 26.8 °F 82% 30.20 in 10.0 mi North 8.1 mph - N/A   Clear
8:33 AM 32.0 °F 27.5 °F 27.5 °F 83% 30.21 in 10.0 mi North 4.6 mph - N/A   Clear
8:53 AM 32.0 °F 24.8 °F 27.5 °F 83% 30.21 in 10.0 mi NNE 8.1 mph - N/A   Clear
9:13 AM 32.2 °F 22.7 °F 27.5 °F 83% 30.21 in 10.0 mi North 12.7 mph 17.3 mph N/A   Clear
9:33 AM 32.9 °F 24.1 °F 27.9 °F 82% 30.22 in 10.0 mi NNE 11.5 mph 16.1 mph N/A   Scattered Clouds
9:53 AM 32.9 °F 25.3 °F 27.7 °F 81% 30.22 in 10.0 mi North 9.2 mph - N/A   Mostly Cloudy
10:13 AM 33.3 °F 25.7 °F 28.2 °F 82% 30.23 in 10.0 mi North 9.2 mph - N/A   Overcast
10:33 AM 33.6 °F 26.2 °F 28.4 °F 81% 30.24 in 10.0 mi North 9.2 mph - N/A   Overcast
10:53 AM 33.4 °F 27.3 °F 28.2 °F 81% 30.26 in 10.0 mi North 6.9 mph - N/A   Overcast
11:13 AM 33.8 °F 27.0 °F 28.4 °F 81% 30.25 in 10.0 mi North 8.1 mph - N/A   Overcast
11:33 AM 34.9 °F 27.7 °F 29.3 °F 80% 30.24 in 10.0 mi NNE 9.2 mph - N/A   Overcast
11:53 AM 34.7 °F 25.9 °F 28.8 °F 79% 30.22 in 10.0 mi North 12.7 mph 17.3 mph N/A   Overcast
12:13 PM 34.7 °F 26.4 °F 28.2 °F 77% 30.22 in 10.0 mi North 11.5 mph 18.4 mph N/A   Overcast
12:33 PM 35.6 °F 26.6 °F 26.8 °F 70% 30.21 in 10.0 mi North 13.8 mph 20.7 mph N/A   Overcast
12:53 PM 35.1 °F 25.9 °F 25.9 °F 69% 30.18 in 10.0 mi North 13.8 mph 24.2 mph N/A   Overcast
1:13 PM 35.4 °F 27.3 °F 24.1 °F 63% 30.18 in 10.0 mi North 11.5 mph 20.7 mph N/A   Overcast
1:33 PM 35.1 °F 27.4 °F 24.1 °F 64% 30.21 in 10.0 mi North 10.4 mph 18.4 mph N/A   Overcast
1:52 PM 35.1 °F 26.4 °F 24.3 °F 65% 30.23 in 10.0 mi North 12.7 mph 16.1 mph N/A   Overcast
2:13 PM 33.8 °F 25.8 °F 25.3 °F 71% 30.22 in 2.5 mi North 10.4 mph 24.2 mph N/A Snow Light Snow
2:33 PM 32.2 °F 22.3 °F 27.9 °F 84% 30.22 in 1.0 mi North 13.8 mph 18.4 mph N/A Snow Light Snow
2:52 PM 31.5 °F 23.5 °F 29.3 °F 92% 30.21 in 0.8 mi North 9.2 mph 16.1 mph N/A Snow Light Snow
3:13 PM 31.1 °F 22.4 °F 29.7 °F 94% 30.20 in 0.8 mi North 10.4 mph 17.3 mph N/A Snow Light Snow
3:33 PM 31.1 °F 23.1 °F 29.8 °F 95% 30.20 in 0.8 mi North 9.2 mph - N/A Snow Light Snow
3:53 PM 31.1 °F 22.4 °F 29.7 °F 94% 30.19 in 0.5 mi North 10.4 mph 16.1 mph N/A Snow Light Snow
4:12 PM 30.7 °F 22.0 °F 29.3 °F 94% 30.20 in 0.8 mi North 10.4 mph - N/A Snow Light Snow
4:33 PM 30.6 °F 21.8 °F 29.3 °F 95% 30.19 in 0.5 mi North 10.4 mph 17.3 mph N/A Snow Snow
4:52 PM 30.6 °F 19.8 °F 29.3 °F 95% 30.19 in 0.5 mi North 15.0 mph 18.4 mph 0.01 in Snow Snow
5:13 PM 30.2 °F 20.8 °F 28.9 °F 95% 30.20 in 0.8 mi North 11.5 mph 17.3 mph N/A Snow Light Snow
5:33 PM 30.6 °F 22.4 °F 28.9 °F 94% 30.20 in 1.0 mi North 9.2 mph - N/A Snow Light Snow
5:53 PM 30.7 °F 22.0 °F 29.1 °F 94% 30.20 in 1.2 mi North 10.4 mph - N/A Snow Light Snow
6:13 PM 30.7 °F 24.1 °F 29.1 °F 94% 30.20 in 1.5 mi North 6.9 mph - N/A Snow Light Snow
6:33 PM 30.7 °F 23.3 °F 29.3 °F 94% 30.20 in 1.5 mi North 8.1 mph - N/A Snow Light Snow
6:53 PM 30.7 °F 23.3 °F 29.3 °F 94% 30.20 in 1.0 mi North 8.1 mph - N/A Snow Light Snow
7:13 PM 30.6 °F 23.1 °F 29.3 °F 95% 30.21 in 1.2 mi North 8.1 mph - N/A Snow Light Snow
7:33 PM 30.6 °F 24.7 °F 29.1 °F 94% 30.21 in 1.0 mi North 5.8 mph - N/A Snow Light Snow
7:53 PM 30.2 °F 25.4 °F 29.1 °F 96% 30.21 in 1.2 mi North 4.6 mph - N/A Snow Light Snow
8:13 PM 30.2 °F 23.4 °F 29.3 °F 96% 30.21 in 1.8 mi North 6.9 mph - N/A Snow Light Snow
8:33 PM 30.2 °F 21.3 °F 28.9 °F 95% 30.21 in 3.0 mi North 10.4 mph - N/A Snow Light Snow
8:53 PM 30.2 °F 22.6 °F 28.4 °F 93% 30.21 in 5.0 mi NNW 8.1 mph - N/A Snow Light Snow
9:13 PM 30.2 °F 22.6 °F 28.0 °F 92% 30.21 in 7.0 mi NNW 8.1 mph - N/A Snow Light Snow
9:33 PM 30.2 °F 21.9 °F 27.5 °F 90% 30.22 in 10.0 mi North 9.2 mph - N/A   Scattered Clouds
9:53 PM 30.2 °F 24.3 °F 27.5 °F 90% 30.23 in 10.0 mi NNW 5.8 mph - N/A   Clear
10:13 PM 29.8 °F 24.9 °F 27.9 °F 92% 30.23 in 10.0 mi NW 4.6 mph - N/A   Scattered Clouds
10:33 PM 30.0 °F 25.2 °F 28.4 °F 94% 30.22 in 10.0 mi NW 4.6 mph - N/A   Scattered Clouds
10:53 PM 30.2 °F 23.4 °F 27.9 °F 91% 30.22 in 10.0 mi NW 6.9 mph - N/A   Scattered Clouds
11:13 PM 30.2 °F 24.3 °F 26.4 °F 86% 30.22 in 10.0 mi WNW 5.8 mph - N/A   Clear
11:33 PM 29.7 °F 22.0 °F 25.3 °F 84% 30.21 in 10.0 mi NW 8.1 mph - N/A   Clear
11:53 PM 29.3 °F 22.3 °F 24.4 °F 82% 30.22 in 10.0 mi WNW 6.9 mph - N/A   Clear